Location: Barrialito
(10.3588°N, 66.9747°W)
Time: 10:28:06
(UTC+00:00)

Meteor 1-11 Rocket - Visible Passes

Search period start: 25 June 2022 00:00
Search period end: 05 July 2022 00:00
Orbit: 831 x 915 km, 81.2° (Epoch: 24 June)

Date Brightness Start Highest point End Pass type
(mag) Time Alt. Az. Time Alt. Az. Time Alt. Az.
26 Jun 3.9 09:46:35 10° SSW 09:52:26 64° W 09:58:20 10° N visible
27 Jun 4.0 09:41:22 10° SSW 09:47:12 60° W 09:53:03 10° N visible
28 Jun 4.0 09:36:10 10° SSW 09:41:58 56° W 09:47:47 10° N visible
29 Jun 6.7 07:52:21 10° ESE 07:53:47 11° E 07:55:14 10° ENE visible
29 Jun 4.0 09:30:57 10° SSW 09:36:44 53° W 09:42:30 10° N visible
30 Jun 6.6 07:46:29 10° ESE 07:48:32 12° E 07:50:35 10° ENE visible
30 Jun 4.1 09:25:47 10° SSW 09:31:29 49° W 09:37:13 10° N visible
01 Jul 6.5 07:40:46 10° ESE 07:43:17 13° E 07:45:46 10° ENE visible
01 Jul 4.2 09:20:35 10° SSW 09:26:15 46° W 09:31:56 10° NNW visible
02 Jul 6.4 07:35:09 10° ESE 07:38:01 14° E 07:40:54 10° ENE visible
02 Jul 4.2 09:15:24 10° SSW 09:21:01 43° W 09:26:37 10° NNW visible
03 Jul 6.4 07:29:35 10° SE 07:32:46 15° E 07:35:57 10° ENE visible
03 Jul 4.3 09:11:05 14° SSW 09:15:46 41° W 09:21:19 10° NNW visible
04 Jul 6.3 07:24:14 11° SE 07:27:31 16° E 07:30:58 10° NE visible
04 Jul 4.4 09:06:47 19° SW 09:10:32 38° W 09:16:00 10° NNW visible
